TimeCDT,TemperatureF,Dew PointF,Humidity,Sea Level PressureIn,VisibilityMPH,Wind Direction,Wind SpeedMPH,Gust SpeedMPH,PrecipitationIn,Events,Conditions,WindDirDegrees,DateUTC
3:13 AM,21.2,17.6,86,30.12,10.0,WNW,6.9,-,N/A,,Clear,300,2013-04-20 08:13:00
3:33 AM,21.2,17.6,86,30.12,10.0,NW,9.2,-,N/A,,Clear,310,2013-04-20 08:33:00
3:53 AM,21.2,17.6,86,30.13,10.0,NW,8.1,-,N/A,,Clear,310,2013-04-20 08:53:00
4:13 AM,21.2,17.6,86,30.13,10.0,NW,6.9,-,N/A,,Clear,310,2013-04-20 09:13:00
4:33 AM,21.2,17.6,86,30.14,10.0,WNW,6.9,-,N/A,,Clear,300,2013-04-20 09:33:00
4:53 AM,19.4,17.6,93,30.14,10.0,NW,8.1,-,N/A,,Clear,310,2013-04-20 09:53:00
5:13 AM,19.4,17.6,93,30.14,10.0,NW,6.9,-,N/A,,Clear,320,2013-04-20 10:13:00
5:33 AM,19.4,15.8,86,30.16,10.0,NW,6.9,-,N/A,,Clear,310,2013-04-20 10:33:00
5:54 AM,19.4,15.8,86,30.16,10.0,NW,6.9,-,N/A,,Clear,310,2013-04-20 10:54:00
6:14 AM,15.8,12.2,86,30.17,10.0,West,4.6,-,N/A,,Clear,260,2013-04-20 11:14:00
6:33 AM,15.8,12.2,86,30.17,10.0,West,4.6,-,N/A,,Clear,280,2013-04-20 11:33:00
6:53 AM,15.8,10.4,79,30.18,10.0,West,4.6,-,N/A,,Clear,260,2013-04-20 11:53:00
7:14 AM,17.6,14.0,86,30.19,10.0,West,5.8,-,N/A,,Clear,260,2013-04-20 12:14:00
7:33 AM,17.6,15.8,93,30.20,10.0,West,3.5,-,N/A,,Clear,270,2013-04-20 12:33:00
7:53 AM,19.4,15.8,86,30.20,10.0,Calm,Calm,-,N/A,,Clear,0,2013-04-20 12:53:00
8:13 AM,19.4,17.6,93,30.21,10.0,WSW,3.5,-,N/A,,Clear,250,2013-04-20 13:13:00
8:33 AM,23.0,19.4,86,30.21,10.0,Calm,Calm,-,N/A,,Clear,0,2013-04-20 13:33:00
8:53 AM,24.8,19.4,80,30.21,10.0,Calm,Calm,-,N/A,,Clear,0,2013-04-20 13:53:00
9:14 AM,26.6,21.2,80,30.22,10.0,Calm,Calm,-,N/A,,Clear,0,2013-04-20 14:14:00
9:33 AM,28.4,21.2,74,30.22,10.0,Calm,Calm,-,N/A,,Clear,0,2013-04-20 14:33:00
9:54 AM,28.4,21.2,74,30.23,10.0,Calm,Calm,-,N/A,,Clear,0,2013-04-20 14:54:00
10:13 AM,30.2,19.4,64,30.23,10.0,Calm,Calm,-,N/A,,Clear,0,2013-04-20 15:13:00
10:33 AM,30.2,21.2,69,30.23,10.0,NE,4.6,-,N/A,,Clear,40,2013-04-20 15:33:00
10:54 AM,30.2,21.2,69,30.23,10.0,East,4.6,-,N/A,,Clear,100,2013-04-20 15:54:00
11:13 AM,30.2,21.2,69,30.24,10.0,East,3.5,-,N/A,,Clear,90,2013-04-20 16:13:00
11:33 AM,32.0,21.2,64,30.24,10.0,Calm,Calm,-,N/A,,Clear,0,2013-04-20 16:33:00
11:53 AM,33.8,21.2,60,30.24,10.0,East,3.5,-,N/A,,Clear,100,2013-04-20 16:53:00
12:13 PM,33.8,21.2,60,30.25,10.0,ESE,4.6,-,N/A,,Clear,120,2013-04-20 17:13:00
12:33 PM,33.8,21.2,60,30.25,10.0,SSE,5.8,-,N/A,,Clear,160,2013-04-20 17:33:00
12:53 PM,33.8,19.4,56,30.24,10.0,SE,5.8,-,N/A,,Clear,140,2013-04-20 17:53:00
1:13 PM,33.8,19.4,56,30.25,10.0,SSE,5.8,-,N/A,,Clear,160,2013-04-20 18:13:00
1:33 PM,35.6,19.4,52,30.25,10.0,SSE,6.9,-,N/A,,Clear,150,2013-04-20 18:33:00
1:54 PM,35.6,21.2,56,30.24,10.0,South,8.1,-,N/A,,Clear,180,2013-04-20 18:54:00
2:13 PM,35.6,21.2,56,30.24,10.0,SSE,6.9,-,N/A,,Clear,160,2013-04-20 19:13:00
2:33 PM,35.6,21.2,56,30.24,10.0,SE,5.8,-,N/A,,Clear,140,2013-04-20 19:33:00
2:53 PM,35.6,19.4,52,30.24,10.0,SSE,9.2,-,N/A,,Clear,160,2013-04-20 19:53:00
3:13 PM,35.6,19.4,52,30.24,10.0,SE,10.4,-,N/A,,Clear,140,2013-04-20 20:13:00
3:33 PM,35.6,17.6,48,30.24,10.0,South,10.4,-,N/A,,Clear,170,2013-04-20 20:33:00
3:53 PM,35.6,17.6,48,30.23,10.0,SSE,10.4,-,N/A,,Clear,160,2013-04-20 20:53:00
4:13 PM,35.6,17.6,48,30.23,10.0,SSE,10.4,-,N/A,,Clear,150,2013-04-20 21:13:00
4:34 PM,37.4,15.8,41,30.22,10.0,SSE,11.5,-,N/A,,Clear,160,2013-04-20 21:34:00
4:53 PM,35.6,15.8,44,30.22,10.0,SSE,12.7,17.3,N/A,,Clear,150,2013-04-20 21:53:00
5:13 PM,35.6,17.6,48,30.21,10.0,SSE,9.2,-,N/A,,Clear,160,2013-04-20 22:13:00
5:33 PM,35.6,15.8,44,30.21,10.0,SE,11.5,-,N/A,,Clear,140,2013-04-20 22:33:00
5:54 PM,35.6,15.8,44,30.21,10.0,SE,11.5,-,N/A,,Clear,140,2013-04-20 22:54:00
6:13 PM,35.6,17.6,48,30.21,10.0,SSE,9.2,-,N/A,,Clear,150,2013-04-20 23:13:00
6:33 PM,35.6,17.6,48,30.20,10.0,SSE,11.5,-,N/A,,Scattered Clouds,150,2013-04-20 23:33:00
6:53 PM,35.6,19.4,52,30.21,10.0,SSE,9.2,-,N/A,,Scattered Clouds,160,2013-04-20 23:53:00
7:13 PM,35.6,21.2,56,30.21,10.0,SSE,8.1,-,N/A,,Scattered Clouds,150,2013-04-21 00:13:00
7:33 PM,33.8,23.0,65,30.21,10.0,SSE,6.9,-,N/A,,Clear,150,2013-04-21 00:33:00
7:53 PM,33.8,24.8,70,30.21,10.0,SE,4.6,-,N/A,,Clear,140,2013-04-21 00:53:00
8:13 PM,33.8,23.0,65,30.21,10.0,SE,5.8,-,N/A,,Clear,140,2013-04-21 01:13:00
8:33 PM,33.8,23.0,65,30.21,10.0,SSE,4.6,-,N/A,,Scattered Clouds,150,2013-04-21 01:33:00
8:53 PM,33.8,24.8,70,30.22,10.0,SSE,5.8,-,N/A,,Mostly Cloudy,160,2013-04-21 01:53:00
9:13 PM,33.8,24.8,70,30.23,10.0,South,11.5,18.4,N/A,,Overcast,170,2013-04-21 02:13:00
9:53 PM,32.0,28.4,87,30.23,2.5,SSE,9.2,-,N/A,Snow,Light Snow,150,2013-04-21 02:53:00
10:13 PM,32.0,28.4,87,30.23,3.0,SE,8.1,-,N/A,Snow,Light Snow,140,2013-04-21 03:13:00
10:34 PM,32.0,30.2,93,30.23,4.0,SE,11.5,-,N/A,Snow,Light Snow,130,2013-04-21 03:34:00
10:53 PM,32.0,30.2,93,30.23,3.0,SE,10.4,-,N/A,Snow,Light Snow,130,2013-04-21 03:53:00
11:13 PM,32.0,30.2,93,30.23,2.0,SE,11.5,-,N/A,Snow,Light Snow,130,2013-04-21 04:13:00
11:33 PM,32.0,30.2,93,30.22,2.5,SE,12.7,-,N/A,Snow,Light Snow,140,2013-04-21 04:33:00
11:53 PM,32.0,30.2,93,30.21,1.8,SE,12.7,-,N/A,Snow,Light Snow,130,2013-04-21 04:53:00